Year,Month,Day,Hour,Minute,Value (Times are PST for temperature in C)
2011,10,24,00,00,7.00
2011,10,24,00,01,6.90
2011,10,24,00,02,6.90
2011,10,24,00,03,6.90
2011,10,24,00,04,6.90
2011,10,24,00,05,6.90
2011,10,24,00,06,6.90
2011,10,24,00,07,6.90
2011,10,24,00,08,6.90
2011,10,24,00,09,6.90
2011,10,24,00,10,6.90
2011,10,24,00,11,6.90
2011,10,24,00,12,6.90
2011,10,24,00,13,6.80
2011,10,24,00,14,6.80
2011,10,24,00,15,6.70
2011,10,24,00,16,6.70
2011,10,24,00,17,6.60
2011,10,24,00,18,6.60
2011,10,24,00,19,6.50
2011,10,24,00,20,6.50
2011,10,24,00,21,6.50
2011,10,24,00,22,6.60
2011,10,24,00,23,6.70
2011,10,24,00,24,6.70
2011,10,24,00,25,6.60
2011,10,24,00,26,6.50
2011,10,24,00,27,6.40
2011,10,24,00,28,6.30
2011,10,24,00,29,6.30
2011,10,24,00,30,6.20
2011,10,24,00,31,6.20
2011,10,24,00,32,6.20
2011,10,24,00,33,6.20
2011,10,24,00,34,6.20
2011,10,24,00,35,6.10
2011,10,24,00,36,6.10
2011,10,24,00,37,6.10
2011,10,24,00,38,6.10
2011,10,24,00,39,6.00
2011,10,24,00,40,6.00
2011,10,24,00,41,6.00
2011,10,24,00,42,6.00
2011,10,24,00,43,6.00
2011,10,24,00,44,6.00
2011,10,24,00,45,6.00
2011,10,24,00,46,6.10
2011,10,24,00,47,6.00
2011,10,24,00,48,6.10
2011,10,24,00,49,6.10
2011,10,24,00,50,6.20
2011,10,24,00,51,6.30
2011,10,24,00,52,6.40
2011,10,24,00,53,6.50
2011,10,24,00,54,6.50
2011,10,24,00,55,6.70
2011,10,24,00,56,6.70
2011,10,24,00,57,6.70
2011,10,24,00,58,6.70
2011,10,24,00,59,6.60
2011,10,24,01,00,6.60
2011,10,24,01,01,6.60
2011,10,24,01,02,6.50
2011,10,24,01,03,6.40
2011,10,24,01,04,6.40
2011,10,24,01,05,6.30
2011,10,24,01,06,6.30
2011,10,24,01,07,6.30
2011,10,24,01,08,6.30
2011,10,24,01,09,6.20
2011,10,24,01,10,6.20
2011,10,24,01,11,6.20
2011,10,24,01,12,6.20
2011,10,24,01,13,6.20
2011,10,24,01,14,6.10
2011,10,24,01,15,6.10
2011,10,24,01,16,6.10
2011,10,24,01,17,6.10
2011,10,24,01,18,6.00
2011,10,24,01,19,6.00
2011,10,24,01,20,5.90
2011,10,24,01,21,5.90
2011,10,24,01,22,5.90
2011,10,24,01,23,5.90
2011,10,24,01,24,5.90
2011,10,24,01,25,5.90
2011,10,24,01,26,5.90
2011,10,24,01,27,5.80
2011,10,24,01,28,5.80
2011,10,24,01,29,5.80
2011,10,24,01,30,5.80
2011,10,24,01,31,5.80
2011,10,24,01,32,5.80
2011,10,24,01,33,5.90
2011,10,24,01,34,5.90
2011,10,24,01,35,5.90
2011,10,24,01,36,6.00
2011,10,24,01,37,6.00
2011,10,24,01,38,6.10
2011,10,24,01,39,6.10
2011,10,24,01,40,6.20
2011,10,24,01,41,6.30
2011,10,24,01,42,6.40
2011,10,24,01,43,6.30
2011,10,24,01,44,6.30
2011,10,24,01,45,6.20
2011,10,24,01,46,6.20
2011,10,24,01,47,6.20
2011,10,24,01,48,6.10
2011,10,24,01,49,6.00
2011,10,24,01,50,5.80
2011,10,24,01,51,5.70
2011,10,24,01,52,5.70
2011,10,24,01,53,5.70
2011,10,24,01,54,5.70
2011,10,24,01,55,5.60
2011,10,24,01,56,5.50
2011,10,24,01,57,5.50
2011,10,24,01,58,5.40
2011,10,24,01,59,5.40
2011,10,24,02,00,5.40
2011,10,24,02,01,5.30
2011,10,24,02,02,5.20
2011,10,24,02,03,5.20
2011,10,24,02,04,5.10
2011,10,24,02,05,5.10
2011,10,24,02,06,5.00
2011,10,24,02,07,4.90
2011,10,24,02,08,4.80
2011,10,24,02,09,4.80
2011,10,24,02,10,4.80
2011,10,24,02,11,4.70
2011,10,24,02,12,4.70
2011,10,24,02,13,4.60
2011,10,24,02,14,4.60
2011,10,24,02,15,4.60
2011,10,24,02,16,4.60
2011,10,24,02,17,4.60
2011,10,24,02,18,4.70
2011,10,24,02,19,4.70
2011,10,24,02,20,4.70
2011,10,24,02,21,4.70
2011,10,24,02,22,4.60
2011,10,24,02,23,4.60
2011,10,24,02,24,4.50
2011,10,24,02,25,4.50
2011,10,24,02,26,4.40
2011,10,24,02,27,4.30
2011,10,24,02,28,4.20
2011,10,24,02,29,4.20
2011,10,24,02,30,4.10
2011,10,24,02,31,4.10
2011,10,24,02,32,4.10
2011,10,24,02,33,4.10
2011,10,24,02,34,4.10
2011,10,24,02,35,4.10
2011,10,24,02,36,4.00
2011,10,24,02,37,4.00
2011,10,24,02,38,4.00
2011,10,24,02,39,4.00
2011,10,24,02,40,3.90
2011,10,24,02,41,3.90
2011,10,24,02,42,3.90
2011,10,24,02,43,3.90
2011,10,24,02,44,3.90
2011,10,24,02,45,3.90
2011,10,24,02,46,3.90
2011,10,24,02,47,3.80
2011,10,24,02,48,3.80
2011,10,24,02,49,3.80
2011,10,24,02,50,3.80
2011,10,24,02,51,3.80
2011,10,24,02,52,3.80
2011,10,24,02,53,3.80
2011,10,24,02,54,3.90
2011,10,24,02,55,3.90
2011,10,24,02,56,3.90
2011,10,24,02,57,3.90
2011,10,24,02,58,3.90
2011,10,24,02,59,4.00
2011,10,24,03,00,4.00
2011,10,24,03,01,3.90
2011,10,24,03,02,3.80
2011,10,24,03,03,3.80
2011,10,24,03,04,3.70
2011,10,24,03,05,3.70
2011,10,24,03,06,3.70
2011,10,24,03,07,3.70
2011,10,24,03,08,3.60
2011,10,24,03,09,3.60
2011,10,24,03,10,3.60
2011,10,24,03,11,3.60
2011,10,24,03,12,3.60
2011,10,24,03,13,3.60
2011,10,24,03,14,3.50
2011,10,24,03,15,3.50
2011,10,24,03,16,3.50
2011,10,24,03,17,3.50
2011,10,24,03,18,3.60
2011,10,24,03,19,3.60
2011,10,24,03,20,3.60
2011,10,24,03,21,3.60
2011,10,24,03,22,3.60
2011,10,24,03,23,3.60
2011,10,24,03,24,3.50
2011,10,24,03,25,3.40
2011,10,24,03,26,3.30
2011,10,24,03,27,3.20
2011,10,24,03,28,3.10
2011,10,24,03,29,3.10
2011,10,24,03,30,3.10
2011,10,24,03,31,3.00
2011,10,24,03,32,3.00
2011,10,24,03,33,3.00
2011,10,24,03,34,3.00
2011,10,24,03,35,2.90
2011,10,24,03,36,2.90
2011,10,24,03,37,2.80
2011,10,24,03,38,2.80
2011,10,24,03,39,2.80
2011,10,24,03,40,2.70
2011,10,24,03,41,2.70
2011,10,24,03,42,2.70
2011,10,24,03,43,2.70
2011,10,24,03,44,2.60
2011,10,24,03,45,2.60
2011,10,24,03,46,2.60
2011,10,24,03,47,2.50
2011,10,24,03,48,2.50
2011,10,24,03,49,2.50
2011,10,24,03,50,2.40
2011,10,24,03,51,2.40
2011,10,24,03,52,2.40
2011,10,24,03,53,2.40
2011,10,24,03,54,2.40
2011,10,24,03,55,2.40
2011,10,24,03,56,2.30
2011,10,24,03,57,2.30
2011,10,24,03,58,2.30
2011,10,24,03,59,2.30
2011,10,24,04,00,2.40
2011,10,24,04,01,2.40
2011,10,24,04,02,2.40
2011,10,24,04,03,2.40
2011,10,24,04,04,2.40
2011,10,24,04,05,2.40
2011,10,24,04,06,2.40
2011,10,24,04,07,2.40
2011,10,24,04,08,2.40
2011,10,24,04,09,2.50
2011,10,24,04,10,2.50
2011,10,24,04,11,2.50
2011,10,24,04,12,2.50
2011,10,24,04,13,2.60
2011,10,24,04,14,2.60
2011,10,24,04,15,2.60
2011,10,24,04,16,2.60
2011,10,24,04,17,2.60
2011,10,24,04,18,2.60
2011,10,24,04,19,2.60
2011,10,24,04,20,2.60
2011,10,24,04,21,2.60
2011,10,24,04,22,2.60
2011,10,24,04,23,2.60
2011,10,24,04,24,2.60
2011,10,24,04,25,2.50
2011,10,24,04,26,2.50
2011,10,24,04,27,2.50
2011,10,24,04,28,2.50
2011,10,24,04,29,2.50
2011,10,24,04,30,2.40
2011,10,24,04,31,2.40
2011,10,24,04,32,2.40
2011,10,24,04,33,2.40
2011,10,24,04,34,2.40
2011,10,24,04,35,2.40
2011,10,24,04,36,2.40
2011,10,24,04,37,2.30
2011,10,24,04,38,2.30
2011,10,24,04,39,2.30
2011,10,24,04,40,2.30
2011,10,24,04,41,2.30
2011,10,24,04,42,2.30
2011,10,24,04,43,2.30
2011,10,24,04,44,2.30
2011,10,24,04,45,2.20
2011,10,24,04,46,2.20
2011,10,24,04,47,2.20
2011,10,24,04,48,2.20
2011,10,24,04,49,2.20
2011,10,24,04,50,2.20
2011,10,24,04,51,2.10
2011,10,24,04,52,2.10
2011,10,24,04,53,2.10
2011,10,24,04,54,2.10
2011,10,24,04,55,2.00
2011,10,24,04,56,2.00
2011,10,24,04,57,2.00
2011,10,24,04,58,1.90
2011,10,24,04,59,1.90
2011,10,24,05,00,1.90
2011,10,24,05,01,1.90
2011,10,24,05,02,1.90
2011,10,24,05,03,1.90
2011,10,24,05,04,1.90
2011,10,24,05,05,1.90
2011,10,24,05,06,1.90
2011,10,24,05,07,1.90
2011,10,24,05,08,1.90
2011,10,24,05,09,1.90
2011,10,24,05,10,1.90
2011,10,24,05,11,1.90
2011,10,24,05,12,1.90
2011,10,24,05,13,1.90
2011,10,24,05,14,2.00
2011,10,24,05,15,2.00
2011,10,24,05,16,2.10
2011,10,24,05,17,2.10
2011,10,24,05,18,2.10
2011,10,24,05,19,2.10
2011,10,24,05,20,2.10
2011,10,24,05,21,2.10
2011,10,24,05,22,2.10
2011,10,24,05,23,2.10
2011,10,24,05,24,2.10
2011,10,24,05,25,2.10
2011,10,24,05,26,2.10
2011,10,24,05,27,2.00
2011,10,24,05,28,2.00
2011,10,24,05,29,2.00
2011,10,24,05,30,1.90
2011,10,24,05,31,1.90
2011,10,24,05,32,1.90
2011,10,24,05,33,1.90
2011,10,24,05,34,1.80
2011,10,24,05,35,1.80
2011,10,24,05,36,1.80
2011,10,24,05,37,1.70
2011,10,24,05,38,1.70
2011,10,24,05,39,1.70
2011,10,24,05,40,1.70
2011,10,24,05,41,1.60
2011,10,24,05,42,1.60
2011,10,24,05,43,1.50
2011,10,24,05,44,1.50
2011,10,24,05,45,1.50
2011,10,24,05,46,1.40
2011,10,24,05,47,1.40
2011,10,24,05,48,1.40
2011,10,24,05,49,1.30
2011,10,24,05,50,1.30
2011,10,24,05,51,1.30
2011,10,24,05,52,1.30
2011,10,24,05,53,1.30
2011,10,24,05,54,1.30
2011,10,24,05,55,1.30
2011,10,24,05,56,1.30
2011,10,24,05,57,1.30
2011,10,24,05,58,1.30
2011,10,24,05,59,1.30
2011,10,24,06,00,1.30
2011,10,24,06,01,1.30
2011,10,24,06,02,1.30
2011,10,24,06,03,1.30
2011,10,24,06,04,1.30
2011,10,24,06,05,1.30
2011,10,24,06,06,1.30
2011,10,24,06,07,1.30
2011,10,24,06,08,1.40
2011,10,24,06,09,1.50
2011,10,24,06,10,1.60
2011,10,24,06,11,1.60
2011,10,24,06,12,1.60
2011,10,24,06,13,1.60
2011,10,24,06,14,1.60
2011,10,24,06,15,1.60
2011,10,24,06,16,1.60
2011,10,24,06,17,1.60
2011,10,24,06,18,1.60
2011,10,24,06,19,1.50
2011,10,24,06,20,1.40
2011,10,24,06,21,1.40
2011,10,24,06,22,1.40
2011,10,24,06,23,1.40
2011,10,24,06,24,1.40
2011,10,24,06,25,1.30
2011,10,24,06,26,1.30
2011,10,24,06,27,1.30
2011,10,24,06,28,1.30
2011,10,24,06,29,1.30
2011,10,24,06,30,1.30
2011,10,24,06,31,1.30
2011,10,24,06,32,1.30
2011,10,24,06,33,1.30
2011,10,24,06,34,1.30
2011,10,24,06,35,1.30
2011,10,24,06,36,1.30
2011,10,24,06,37,1.30
2011,10,24,06,38,1.30
2011,10,24,06,39,1.30
2011,10,24,06,40,1.30
2011,10,24,06,41,1.30
2011,10,24,06,42,1.30
2011,10,24,06,43,1.30
2011,10,24,06,44,1.30
2011,10,24,06,45,1.30
2011,10,24,06,46,1.30
2011,10,24,06,47,1.20
2011,10,24,06,48,1.20
2011,10,24,06,49,1.20
2011,10,24,06,50,1.10
2011,10,24,06,51,1.10
2011,10,24,06,52,1.10
2011,10,24,06,53,1.10
2011,10,24,06,54,1.00
2011,10,24,06,55,1.00
2011,10,24,06,56,1.00
2011,10,24,06,57,1.00
2011,10,24,06,58,0.90
2011,10,24,06,59,0.90
2011,10,24,07,00,0.90
2011,10,24,07,01,0.90
2011,10,24,07,02,0.90
2011,10,24,07,03,1.00
2011,10,24,07,04,1.00
2011,10,24,07,05,1.00
2011,10,24,07,06,1.00
2011,10,24,07,07,1.10
2011,10,24,07,08,1.10
2011,10,24,07,09,1.10
2011,10,24,07,10,1.10
2011,10,24,07,11,1.20
2011,10,24,07,12,1.30
2011,10,24,07,13,1.30
2011,10,24,07,14,1.30
2011,10,24,07,15,1.30
2011,10,24,07,16,1.30
2011,10,24,07,17,1.30
2011,10,24,07,18,1.30
2011,10,24,07,19,1.30
2011,10,24,07,20,1.30
2011,10,24,07,21,1.20
2011,10,24,07,22,1.20
2011,10,24,07,23,1.20
2011,10,24,07,24,1.10
2011,10,24,07,25,1.10
2011,10,24,07,26,1.10
2011,10,24,07,27,1.00
2011,10,24,07,28,1.00
2011,10,24,07,29,1.00
2011,10,24,07,30,0.90
2011,10,24,07,31,0.90
2011,10,24,07,32,0.90
2011,10,24,07,33,0.80
2011,10,24,07,34,0.80
2011,10,24,07,35,0.80
2011,10,24,07,36,0.80
2011,10,24,07,37,0.70
2011,10,24,07,38,0.70
2011,10,24,07,39,0.70
2011,10,24,07,40,0.70
2011,10,24,07,41,0.60
2011,10,24,07,42,0.60
2011,10,24,07,43,0.60
2011,10,24,07,44,0.60
2011,10,24,07,45,0.60
2011,10,24,07,46,0.50
2011,10,24,07,47,0.50
2011,10,24,07,48,0.50
2011,10,24,07,49,0.50
2011,10,24,07,50,0.50
2011,10,24,07,51,0.60
2011,10,24,07,52,0.60
2011,10,24,07,53,0.60
2011,10,24,07,54,0.60
2011,10,24,07,55,0.60
2011,10,24,07,56,0.60
2011,10,24,07,57,0.60
2011,10,24,07,58,0.70
2011,10,24,07,59,0.70
2011,10,24,08,00,0.70
2011,10,24,08,01,0.80
2011,10,24,08,02,0.80
2011,10,24,08,03,0.80
2011,10,24,08,04,0.80
2011,10,24,08,05,0.80
2011,10,24,08,06,0.80
2011,10,24,08,07,0.70
2011,10,24,08,08,0.70
2011,10,24,08,09,0.70
2011,10,24,08,10,0.60
2011,10,24,08,11,0.60
2011,10,24,08,12,0.60
2011,10,24,08,13,0.50
2011,10,24,08,14,0.50
2011,10,24,08,15,0.50
2011,10,24,08,16,0.50
2011,10,24,08,17,0.40
2011,10,24,08,18,0.40
2011,10,24,08,19,0.40
2011,10,24,08,20,0.40
2011,10,24,08,21,0.50
2011,10,24,08,22,0.50
2011,10,24,08,23,0.50
2011,10,24,08,24,0.50
2011,10,24,08,25,0.50
2011,10,24,08,26,0.50
2011,10,24,08,27,0.50
2011,10,24,08,28,0.60
2011,10,24,08,29,0.60
2011,10,24,08,30,0.70
2011,10,24,08,31,0.80
2011,10,24,08,32,0.90
2011,10,24,08,33,1.00
2011,10,24,08,34,1.10
2011,10,24,08,35,1.20
2011,10,24,08,36,1.30
2011,10,24,08,37,1.30
2011,10,24,08,38,1.30
2011,10,24,08,39,1.30
2011,10,24,08,40,1.30
2011,10,24,08,41,1.30
2011,10,24,08,42,1.40
2011,10,24,08,43,1.50
2011,10,24,08,44,1.60
2011,10,24,08,45,1.60
2011,10,24,08,46,1.70
2011,10,24,08,47,1.70
2011,10,24,08,48,1.80
2011,10,24,08,49,1.80
2011,10,24,08,50,1.90
2011,10,24,08,51,2.00
2011,10,24,08,52,2.10
2011,10,24,08,53,2.20
2011,10,24,08,54,2.20
2011,10,24,08,55,2.30
2011,10,24,08,56,2.30
2011,10,24,08,57,2.40
2011,10,24,08,58,2.40
2011,10,24,08,59,2.50
2011,10,24,09,00,2.60
2011,10,24,09,01,2.60
2011,10,24,09,02,2.70
2011,10,24,09,03,2.70
2011,10,24,09,04,2.80
2011,10,24,09,05,2.90
2011,10,24,09,06,3.00
2011,10,24,09,07,3.10
2011,10,24,09,08,3.20
2011,10,24,09,09,3.20
2011,10,24,09,10,3.20
2011,10,24,09,11,3.30
2011,10,24,09,12,3.30
2011,10,24,09,13,3.30
2011,10,24,09,14,3.30
2011,10,24,09,15,3.30
2011,10,24,09,16,3.30
2011,10,24,09,17,3.30
2011,10,24,09,18,3.30
2011,10,24,09,19,3.40
2011,10,24,09,20,3.40
2011,10,24,09,21,3.40
2011,10,24,09,22,3.40
2011,10,24,09,23,3.40
2011,10,24,09,24,3.40
2011,10,24,09,25,3.40
2011,10,24,09,26,3.40
2011,10,24,09,27,3.40
2011,10,24,09,28,3.40
2011,10,24,09,29,3.40
2011,10,24,09,30,3.50
2011,10,24,09,31,3.50
2011,10,24,09,32,3.50
2011,10,24,09,33,3.60
2011,10,24,09,34,3.60
2011,10,24,09,35,3.60
2011,10,24,09,36,3.70
2011,10,24,09,37,3.70
2011,10,24,09,38,3.70
2011,10,24,09,39,3.80
2011,10,24,09,40,3.90
2011,10,24,09,41,4.00
2011,10,24,09,42,4.10
2011,10,24,09,43,4.20
2011,10,24,09,44,4.30
2011,10,24,09,45,4.40
2011,10,24,09,46,4.50
2011,10,24,09,47,4.60
2011,10,24,09,48,4.60
2011,10,24,09,49,4.70
2011,10,24,09,50,4.80
2011,10,24,09,51,4.80
2011,10,24,09,52,4.80
2011,10,24,09,53,4.80
2011,10,24,09,54,4.80
2011,10,24,09,55,4.90
2011,10,24,09,56,4.90
2011,10,24,09,57,4.90
2011,10,24,09,58,5.00
2011,10,24,09,59,5.00
2011,10,24,10,00,5.10
2011,10,24,10,01,5.10
2011,10,24,10,02,5.20
2011,10,24,10,03,5.30
2011,10,24,10,04,5.40
2011,10,24,10,05,5.60
2011,10,24,10,06,5.70
2011,10,24,10,07,5.80
2011,10,24,10,08,5.90
2011,10,24,10,09,6.00
2011,10,24,10,10,6.10
2011,10,24,10,11,6.10
2011,10,24,10,12,6.20
2011,10,24,10,13,6.30
2011,10,24,10,14,6.40
2011,10,24,10,15,6.50
2011,10,24,10,16,6.60
2011,10,24,10,17,6.70
2011,10,24,10,18,6.70
2011,10,24,10,19,6.80
2011,10,24,10,20,6.90
2011,10,24,10,21,7.10
2011,10,24,10,22,7.20
2011,10,24,10,23,7.30
2011,10,24,10,24,7.40
2011,10,24,10,25,7.60
2011,10,24,10,26,7.70
2011,10,24,10,27,7.80
2011,10,24,10,28,8.00
2011,10,24,10,29,8.10
2011,10,24,10,30,8.20
2011,10,24,10,31,8.40
2011,10,24,10,32,8.60
2011,10,24,10,33,8.70
2011,10,24,10,34,8.90
2011,10,24,10,35,9.10
2011,10,24,10,36,9.20
2011,10,24,10,37,9.40
2011,10,24,10,38,9.50
2011,10,24,10,39,9.60
2011,10,24,10,40,9.70
2011,10,24,10,41,9.80
2011,10,24,10,42,9.90
2011,10,24,10,43,9.90
2011,10,24,10,44,9.90
2011,10,24,10,45,9.90
2011,10,24,10,46,9.90
2011,10,24,10,47,9.90
2011,10,24,10,48,9.90
2011,10,24,10,49,9.90
2011,10,24,10,50,9.90
2011,10,24,10,51,10.00
2011,10,24,10,52,10.10
2011,10,24,10,53,10.20
2011,10,24,10,54,10.30
2011,10,24,10,55,10.30
2011,10,24,10,56,10.30
2011,10,24,10,57,10.30
2011,10,24,10,58,10.30
2011,10,24,10,59,10.30
2011,10,24,11,00,10.30
2011,10,24,11,01,10.30
2011,10,24,11,02,10.40
2011,10,24,11,03,10.40
2011,10,24,11,04,10.40
2011,10,24,11,05,10.40
2011,10,24,11,06,10.50
2011,10,24,11,07,10.50
2011,10,24,11,08,10.50
2011,10,24,11,09,10.60
2011,10,24,11,10,10.70
2011,10,24,11,11,10.80
2011,10,24,11,12,10.90
2011,10,24,11,13,11.00
2011,10,24,11,14,11.00
2011,10,24,11,15,11.10
2011,10,24,11,16,11.20
2011,10,24,11,17,11.20
2011,10,24,11,18,11.30
2011,10,24,11,19,11.30
2011,10,24,11,20,11.30
2011,10,24,11,21,11.30
2011,10,24,11,22,11.30
2011,10,24,11,23,11.30
2011,10,24,11,24,11.30
2011,10,24,11,25,11.30
2011,10,24,11,26,11.40
2011,10,24,11,27,11.40
2011,10,24,11,28,11.50
2011,10,24,11,29,11.60
2011,10,24,11,30,11.60
2011,10,24,11,31,11.70
2011,10,24,11,32,11.80
2011,10,24,11,33,11.80
2011,10,24,11,34,11.80
2011,10,24,11,35,11.80
2011,10,24,11,36,11.80
2011,10,24,11,37,11.90
2011,10,24,11,38,11.90
2011,10,24,11,39,12.00
2011,10,24,11,40,12.00
2011,10,24,11,41,12.00
2011,10,24,11,42,12.00
2011,10,24,11,43,12.00
2011,10,24,11,44,11.90
2011,10,24,11,45,11.90
2011,10,24,11,46,11.90
2011,10,24,11,47,11.90
2011,10,24,11,48,11.90
2011,10,24,11,49,11.90
2011,10,24,11,50,11.90
2011,10,24,11,51,11.90
2011,10,24,11,52,11.90
2011,10,24,11,53,11.90
2011,10,24,11,54,11.90
2011,10,24,11,55,11.90
2011,10,24,11,56,11.90
2011,10,24,11,57,11.90
2011,10,24,11,58,12.00
2011,10,24,11,59,12.10
2011,10,24,12,00,12.30
2011,10,24,12,01,12.40
2011,10,24,12,02,12.50
2011,10,24,12,03,12.50
2011,10,24,12,04,12.50
2011,10,24,12,05,12.50
2011,10,24,12,06,12.60
2011,10,24,12,07,12.70
2011,10,24,12,08,12.70
2011,10,24,12,09,12.70
2011,10,24,12,10,12.80
2011,10,24,12,11,12.70
2011,10,24,12,12,12.70
2011,10,24,12,13,12.60
2011,10,24,12,14,12.60
2011,10,24,12,15,12.60
2011,10,24,12,16,12.60
2011,10,24,12,17,12.60
2011,10,24,12,18,12.60
2011,10,24,12,19,12.60
2011,10,24,12,20,12.60
2011,10,24,12,21,12.60
2011,10,24,12,22,12.70
2011,10,24,12,23,12.70
2011,10,24,12,24,12.80
2011,10,24,12,25,12.80
2011,10,24,12,26,12.90
2011,10,24,12,27,13.00
2011,10,24,12,28,13.10
2011,10,24,12,29,13.10
2011,10,24,12,30,13.10
2011,10,24,12,31,13.10
2011,10,24,12,32,13.10
2011,10,24,12,33,13.10
2011,10,24,12,34,13.10
2011,10,24,12,35,13.10
2011,10,24,12,36,13.10
2011,10,24,12,37,13.10
2011,10,24,12,38,13.10
2011,10,24,12,39,13.10
2011,10,24,12,40,13.00
2011,10,24,12,41,12.90
2011,10,24,12,42,12.80
2011,10,24,12,43,12.80
2011,10,24,12,44,12.80
2011,10,24,12,45,12.80
2011,10,24,12,46,12.80
2011,10,24,12,47,12.70
2011,10,24,12,48,12.70
2011,10,24,12,49,12.80
2011,10,24,12,50,12.90
2011,10,24,12,51,12.90
2011,10,24,12,52,12.90
2011,10,24,12,53,12.90
2011,10,24,12,54,12.90
2011,10,24,12,55,12.90
2011,10,24,12,56,12.90
2011,10,24,12,57,12.80
2011,10,24,12,58,12.70
2011,10,24,12,59,12.60
2011,10,24,13,00,12.60
2011,10,24,13,01,12.50
2011,10,24,13,02,12.50
2011,10,24,13,03,12.50
2011,10,24,13,04,12.50
2011,10,24,13,05,12.50
2011,10,24,13,06,12.50
2011,10,24,13,07,12.50
2011,10,24,13,08,12.40
2011,10,24,13,09,12.30
2011,10,24,13,10,12.20
2011,10,24,13,11,12.20
2011,10,24,13,12,12.20
2011,10,24,13,13,12.20
2011,10,24,13,14,12.10
2011,10,24,13,15,12.10
2011,10,24,13,16,12.10
2011,10,24,13,17,12.10
2011,10,24,13,18,12.00
2011,10,24,13,19,12.00
2011,10,24,13,20,11.90
2011,10,24,13,21,11.90
2011,10,24,13,22,11.90
2011,10,24,13,23,11.90
2011,10,24,13,24,11.90
2011,10,24,13,25,11.90
2011,10,24,13,26,11.90
2011,10,24,13,27,11.90
2011,10,24,13,28,11.80
2011,10,24,13,29,11.80
2011,10,24,13,30,11.80
2011,10,24,13,31,11.80
2011,10,24,13,32,11.80
2011,10,24,13,33,11.70
2011,10,24,13,34,11.80
2011,10,24,13,35,11.80
2011,10,24,13,36,11.70
2011,10,24,13,37,11.70
2011,10,24,13,38,11.70
2011,10,24,13,39,11.70
2011,10,24,13,40,11.70
2011,10,24,13,41,11.80
2011,10,24,13,42,11.70
2011,10,24,13,43,11.70
2011,10,24,13,44,11.70
2011,10,24,13,45,11.70
2011,10,24,13,46,11.70
2011,10,24,13,47,11.70
2011,10,24,13,48,11.70
2011,10,24,13,49,11.70
2011,10,24,13,50,11.70
2011,10,24,13,51,11.70
2011,10,24,13,52,11.70
2011,10,24,13,53,11.70
2011,10,24,13,54,11.70
2011,10,24,13,55,11.70
2011,10,24,13,56,11.60
2011,10,24,13,57,11.60
2011,10,24,13,58,11.60
2011,10,24,13,59,11.60
2011,10,24,14,00,11.60
2011,10,24,14,01,11.60
2011,10,24,14,02,11.60
2011,10,24,14,03,11.70
2011,10,24,14,04,11.70
2011,10,24,14,05,11.80
2011,10,24,14,06,11.80
2011,10,24,14,07,11.80
2011,10,24,14,08,11.90
2011,10,24,14,09,11.90
2011,10,24,14,10,11.90
2011,10,24,14,11,11.90
2011,10,24,14,12,12.00
2011,10,24,14,13,12.00
2011,10,24,14,14,12.00
2011,10,24,14,15,12.10
2011,10,24,14,16,12.10
2011,10,24,14,17,12.10
2011,10,24,14,18,12.10
2011,10,24,14,19,12.10
2011,10,24,14,20,12.10
2011,10,24,14,21,12.10
2011,10,24,14,22,12.10
2011,10,24,14,23,12.10
2011,10,24,14,24,12.00
2011,10,24,14,25,12.00
2011,10,24,14,26,11.90
2011,10,24,14,27,11.90
2011,10,24,14,28,11.90
2011,10,24,14,29,11.80
2011,10,24,14,30,11.80
2011,10,24,14,31,11.80
2011,10,24,14,32,11.80
2011,10,24,14,33,11.80
2011,10,24,14,34,11.80
2011,10,24,14,35,11.80
2011,10,24,14,36,11.80
2011,10,24,14,37,11.90
2011,10,24,14,38,11.90
2011,10,24,14,39,12.00
2011,10,24,14,40,12.00
2011,10,24,14,41,12.10
2011,10,24,14,42,12.10
2011,10,24,14,43,12.10
2011,10,24,14,44,12.20
2011,10,24,14,45,12.20
2011,10,24,14,46,12.20
2011,10,24,14,47,12.20
2011,10,24,14,48,12.20
2011,10,24,14,49,12.30
2011,10,24,14,50,12.30
2011,10,24,14,51,12.30
2011,10,24,14,52,12.30
2011,10,24,14,53,12.40
2011,10,24,14,54,12.40
2011,10,24,14,55,12.40
2011,10,24,14,56,12.40
2011,10,24,14,57,12.40
2011,10,24,14,58,12.50
2011,10,24,14,59,12.60
2011,10,24,15,00,12.60
2011,10,24,15,01,12.60
2011,10,24,15,02,12.60
2011,10,24,15,03,12.60
2011,10,24,15,04,12.60
2011,10,24,15,05,12.60
2011,10,24,15,06,12.60
2011,10,24,15,07,12.60
2011,10,24,15,08,12.60
2011,10,24,15,09,12.70
2011,10,24,15,10,12.70
2011,10,24,15,11,12.70
2011,10,24,15,12,12.80
2011,10,24,15,13,13.00
2011,10,24,15,14,13.10
2011,10,24,15,15,13.10
2011,10,24,15,16,13.20
2011,10,24,15,17,13.20
2011,10,24,15,18,13.20
2011,10,24,15,19,13.30
2011,10,24,15,20,13.30
2011,10,24,15,21,13.30
2011,10,24,15,22,13.30
2011,10,24,15,23,13.20
2011,10,24,15,24,13.20
2011,10,24,15,25,13.20
2011,10,24,15,26,13.20
2011,10,24,15,27,13.20
2011,10,24,15,28,13.20
2011,10,24,15,29,13.20
2011,10,24,15,30,13.30
2011,10,24,15,31,13.30
2011,10,24,15,32,13.40
2011,10,24,15,33,13.50
2011,10,24,15,34,13.50
2011,10,24,15,35,13.50
2011,10,24,15,36,13.50
2011,10,24,15,37,13.50
2011,10,24,15,38,13.50
2011,10,24,15,39,13.60
2011,10,24,15,40,13.60
2011,10,24,15,41,13.70
2011,10,24,15,42,13.80
2011,10,24,15,43,13.70
2011,10,24,15,44,13.80
2011,10,24,15,45,13.80
2011,10,24,15,46,13.80
2011,10,24,15,47,13.70
2011,10,24,15,48,13.70
2011,10,24,15,49,13.70
2011,10,24,15,50,13.70
2011,10,24,15,51,13.70
2011,10,24,15,52,13.70
2011,10,24,15,53,13.70
2011,10,24,15,54,13.70
2011,10,24,15,55,13.70
2011,10,24,15,56,13.70
2011,10,24,15,57,13.70
2011,10,24,15,58,13.60
2011,10,24,15,59,13.60
2011,10,24,16,00,13.50
2011,10,24,16,01,13.50
2011,10,24,16,02,13.50
2011,10,24,16,03,13.50
2011,10,24,16,04,13.40
2011,10,24,16,05,13.40
2011,10,24,16,06,13.40
2011,10,24,16,07,13.40
2011,10,24,16,08,13.40
2011,10,24,16,09,13.40
2011,10,24,16,10,13.40
2011,10,24,16,11,13.40
2011,10,24,16,12,13.40
2011,10,24,16,13,13.40
2011,10,24,16,14,13.40
2011,10,24,16,15,13.40
2011,10,24,16,16,13.40
2011,10,24,16,17,13.50
2011,10,24,16,18,13.50
2011,10,24,16,19,13.60
2011,10,24,16,20,13.60
2011,10,24,16,21,13.60
2011,10,24,16,22,13.60
2011,10,24,16,23,13.60
2011,10,24,16,24,13.60
2011,10,24,16,25,13.60
2011,10,24,16,26,13.60
2011,10,24,16,27,13.50
2011,10,24,16,28,13.50
2011,10,24,16,29,13.50
2011,10,24,16,30,13.40
2011,10,24,16,31,13.40
2011,10,24,16,32,13.40
2011,10,24,16,33,13.40
2011,10,24,16,34,13.40
2011,10,24,16,35,13.40
2011,10,24,16,36,13.40
2011,10,24,16,37,13.40
2011,10,24,16,38,13.40
2011,10,24,16,39,13.40
2011,10,24,16,40,13.40
2011,10,24,16,41,13.40
2011,10,24,16,42,13.30
2011,10,24,16,43,13.30
2011,10,24,16,44,13.30
2011,10,24,16,45,13.30
2011,10,24,16,46,13.30
2011,10,24,16,47,13.30
2011,10,24,16,48,13.30
2011,10,24,16,49,13.20
2011,10,24,16,50,13.20
2011,10,24,16,51,13.20
2011,10,24,16,52,13.20
2011,10,24,16,53,13.20
2011,10,24,16,54,13.20
2011,10,24,16,55,13.20
2011,10,24,16,56,13.20
2011,10,24,16,57,13.20
2011,10,24,16,58,13.20
2011,10,24,16,59,13.10
2011,10,24,17,00,13.10
2011,10,24,17,01,13.10
2011,10,24,17,02,13.00
2011,10,24,17,03,13.00
2011,10,24,17,04,12.90
2011,10,24,17,05,12.90
2011,10,24,17,06,12.90
2011,10,24,17,07,12.90
2011,10,24,17,08,12.90
2011,10,24,17,09,12.90
2011,10,24,17,10,13.00
2011,10,24,17,11,13.00
2011,10,24,17,12,13.00
2011,10,24,17,13,12.90
2011,10,24,17,14,12.90
2011,10,24,17,15,12.90
2011,10,24,17,16,12.90
2011,10,24,17,17,12.90
2011,10,24,17,18,12.90
2011,10,24,17,19,13.00
2011,10,24,17,20,12.90
2011,10,24,17,21,12.90
2011,10,24,17,22,12.90
2011,10,24,17,23,12.90
2011,10,24,17,24,12.80
2011,10,24,17,25,12.80
2011,10,24,17,26,12.70
2011,10,24,17,27,12.70
2011,10,24,17,28,12.60
2011,10,24,17,29,12.60
2011,10,24,17,30,12.50
2011,10,24,17,31,12.40
2011,10,24,17,32,12.40
2011,10,24,17,33,12.30
2011,10,24,17,34,12.30
2011,10,24,17,35,12.30
2011,10,24,17,36,12.30
2011,10,24,17,37,12.30
2011,10,24,17,38,12.20
2011,10,24,17,39,12.20
2011,10,24,17,40,12.20
2011,10,24,17,41,12.20
2011,10,24,17,42,12.10
2011,10,24,17,43,12.10
2011,10,24,17,44,12.10
2011,10,24,17,45,12.00
2011,10,24,17,46,12.00
2011,10,24,17,47,11.90